Time,TemperatureF,DewpointF,PressureIn,WindDirection,WindDirectionDegrees,WindSpeedMPH,WindSpeedGustMPH,Humidity,HourlyPrecipIn,Conditions,Clouds,dailyrainin,SoftwareType,DateUTC
2013-11-28 00:02:00,50.0,-99.9,-100.00,NE,49,4.0,6.0,-999,-99.99,,,-99.99,,2013-11-28 07:02:00,
2013-11-28 00:20:00,49.0,-99.9,-100.00,SSE,162,6.0,13.0,-999,-99.99,,,-99.99,,2013-11-28 07:20:00,
2013-11-28 00:52:00,49.0,-99.9,-100.00,North,10,8.0,9.0,-999,-99.99,,,-99.99,,2013-11-28 07:52:00,
2013-11-28 01:00:00,49.0,-99.9,-100.00,East,94,4.0,7.0,-999,-99.99,,,-99.99,,2013-11-28 08:00:00,
2013-11-28 01:11:00,49.0,-99.9,-100.00,SSE,162,6.0,13.0,-999,-99.99,,,-99.99,,2013-11-28 08:11:00,
2013-11-28 01:42:00,49.0,-99.9,-100.00,East,94,4.0,7.0,-999,-99.99,,,-99.99,,2013-11-28 08:42:00,
2013-11-28 01:53:00,49.0,-99.9,-100.00,East,94,4.0,7.0,-999,-99.99,,,-99.99,,2013-11-28 08:53:00,
2013-11-28 02:22:00,53.0,-99.9,-100.00,East,80,5.0,10.0,-999,-99.99,,,-99.99,,2013-11-28 09:22:00,
2013-11-28 02:33:00,53.0,-99.9,-100.00,East,80,5.0,10.0,-999,-99.99,,,-99.99,,2013-11-28 09:33:00,
2013-11-28 03:50:00,48.0,-99.9,-100.00,ESE,104,9.0,9.0,-999,-99.99,,,-99.99,,2013-11-28 10:50:00,
2013-11-28 04:12:00,48.0,-99.9,-100.00,ENE,72,6.0,10.0,-999,-99.99,,,-99.99,,2013-11-28 11:12:00,
2013-11-28 04:42:00,48.0,-99.9,-100.00,ESE,104,9.0,9.0,-999,-99.99,,,-99.99,,2013-11-28 11:42:00,
2013-11-28 04:50:00,51.0,-99.9,-100.00,East,94,3.0,10.0,-999,-99.99,,,-99.99,,2013-11-28 11:50:00,
2013-11-28 05:42:00,51.0,-99.9,-100.00,East,94,3.0,10.0,-999,-99.99,,,-99.99,,2013-11-28 12:42:00,
2013-11-28 05:50:00,51.0,-99.9,-100.00,ENE,67,7.0,11.0,-999,-99.99,,,-99.99,,2013-11-28 12:50:00,
2013-11-28 06:20:00,51.0,-99.9,-100.00,East,94,6.0,8.0,-999,-99.99,,,-99.99,,2013-11-28 13:20:00,
2013-11-28 06:22:00,50.0,-99.9,-100.00,East,82,6.0,10.0,-999,-99.99,,,-99.99,,2013-11-28 13:22:00,
2013-11-28 06:42:00,51.0,-99.9,-100.00,ENE,67,7.0,11.0,-999,-99.99,,,-99.99,,2013-11-28 13:42:00,
2013-11-28 07:11:00,51.0,-99.9,-100.00,East,94,6.0,8.0,-999,-99.99,,,-99.99,,2013-11-28 14:11:00,
2013-11-28 07:50:00,49.0,-99.9,-100.00,ENE,61,5.0,9.0,-999,-99.99,,,-99.99,,2013-11-28 14:50:00,
2013-11-28 08:44:00,49.0,-99.9,-100.00,ENE,61,5.0,9.0,-999,-99.99,,,-99.99,,2013-11-28 15:44:00,
2013-11-28 09:13:00,54.0,-99.9,-100.00,ESE,111,10.0,16.0,-999,-99.99,,,-99.99,,2013-11-28 16:13:00,
2013-11-28 09:23:00,54.0,-99.9,-100.00,ESE,111,10.0,16.0,-999,-99.99,,,-99.99,,2013-11-28 16:23:00,
2013-11-28 09:43:00,56.0,-99.9,-100.00,ESE,118,8.0,15.0,-999,-99.99,,,-99.99,,2013-11-28 16:43:00,
2013-11-28 09:54:00,57.0,-99.9,-100.00,East,96,8.0,12.0,-999,-99.99,,,-99.99,,2013-11-28 16:54:00,
2013-11-28 10:03:00,57.0,-99.9,-100.00,East,96,8.0,12.0,-999,-99.99,,,-99.99,,2013-11-28 17:03:00,
2013-11-28 10:40:00,61.0,-99.9,-100.00,East,90,6.0,9.0,-999,-99.99,,,-99.99,,2013-11-28 17:40:00,
2013-11-28 10:42:00,57.0,-99.9,-100.00,SE,143,6.0,14.0,-999,-99.99,,,-99.99,,2013-11-28 17:42:00,
2013-11-28 10:52:00,57.0,-99.9,-100.00,East,98,10.0,17.0,-999,-99.99,,,-99.99,,2013-11-28 17:52:00,
2013-11-28 11:10:00,63.0,-99.9,-100.00,WNW,295,2.0,16.0,-999,-99.99,,,-99.99,,2013-11-28 18:10:00,
2013-11-28 11:12:00,58.0,-99.9,-100.00,ENE,70,7.0,13.0,-999,-99.99,,,-99.99,,2013-11-28 18:12:00,
2013-11-28 11:22:00,61.0,-99.9,-100.00,East,90,6.0,9.0,-999,-99.99,,,-99.99,,2013-11-28 18:22:00,
2013-11-28 11:33:00,61.0,-99.9,-100.00,East,90,6.0,9.0,-999,-99.99,,,-99.99,,2013-11-28 18:33:00,
2013-11-28 11:52:00,63.0,-99.9,-100.00,WNW,295,2.0,16.0,-999,-99.99,,,-99.99,,2013-11-28 18:52:00,
2013-11-28 12:02:00,63.0,-99.9,-100.00,WNW,295,2.0,16.0,-999,-99.99,,,-99.99,,2013-11-28 19:02:00,
2013-11-28 13:00:00,65.0,-99.9,-100.00,SSW,206,4.0,7.0,-999,-99.99,,,-99.99,,2013-11-28 20:00:00,
2013-11-28 13:12:00,65.0,-99.9,-100.00,SE,145,5.0,10.0,-999,-99.99,,,-99.99,,2013-11-28 20:12:00,
2013-11-28 13:22:00,65.0,-99.9,-100.00,South,189,9.0,11.0,-999,-99.99,,,-99.99,,2013-11-28 20:22:00,
2013-11-28 13:32:00,65.0,-99.9,-100.00,South,189,9.0,11.0,-999,-99.99,,,-99.99,,2013-11-28 20:32:00,
2013-11-28 13:52:00,65.0,-99.9,-100.00,SSW,206,4.0,7.0,-999,-99.99,,,-99.99,,2013-11-28 20:52:00,
2013-11-28 14:22:00,65.0,-99.9,-100.00,South,186,10.0,10.0,-999,-99.99,,,-99.99,,2013-11-28 21:22:00,
2013-11-28 14:43:00,66.0,-99.9,-100.00,East,98,1.0,6.0,-999,-99.99,,,-99.99,,2013-11-28 21:43:00,
2013-11-28 14:53:00,66.0,-99.9,-100.00,East,98,1.0,6.0,-999,-99.99,,,-99.99,,2013-11-28 21:53:00,
2013-11-28 15:10:00,68.0,-99.9,-100.00,ESE,119,3.0,8.0,-999,-99.99,,,-99.99,,2013-11-28 22:10:00,
2013-11-28 15:23:00,67.0,-99.9,-100.00,SW,229,2.0,3.0,-999,-99.99,,,-99.99,,2013-11-28 22:23:00,
2013-11-28 15:33:00,67.0,-99.9,-100.00,SW,229,2.0,3.0,-999,-99.99,,,-99.99,,2013-11-28 22:33:00,
2013-11-28 15:53:00,68.0,-99.9,-100.00,ESE,119,3.0,8.0,-999,-99.99,,,-99.99,,2013-11-28 22:53:00,
2013-11-28 16:02:00,68.0,-99.9,-100.00,ESE,119,3.0,8.0,-999,-99.99,,,-99.99,,2013-11-28 23:02:00,
2013-11-28 16:22:00,68.0,-99.9,-100.00,NNW,339,3.0,4.0,-999,-99.99,,,-99.99,,2013-11-28 23:22:00,
2013-11-28 16:42:00,67.0,-99.9,-100.00,North,7,2.0,7.0,-999,-99.99,,,-99.99,,2013-11-28 23:42:00,
2013-11-28 16:52:00,67.0,-99.9,-100.00,SSW,204,6.0,12.0,-999,-99.99,,,-99.99,,2013-11-28 23:52:00,
2013-11-28 17:02:00,67.0,-99.9,-100.00,SSW,204,6.0,12.0,-999,-99.99,,,-99.99,,2013-11-29 00:02:00,
2013-11-28 17:50:00,63.0,-99.9,-100.00,NNE,14,2.0,3.0,-999,-99.99,,,-99.99,,2013-11-29 00:50:00,
2013-11-28 18:42:00,63.0,-99.9,-100.00,NNE,14,2.0,3.0,-999,-99.99,,,-99.99,,2013-11-29 01:42:00,
2013-11-28 19:42:00,63.0,-99.9,-100.00,NE,35,5.0,5.0,-999,-99.99,,,-99.99,,2013-11-29 02:42:00,
2013-11-28 20:10:00,58.0,-99.9,-100.00,NNE,19,11.0,14.0,-999,-99.99,,,-99.99,,2013-11-29 03:10:00,
2013-11-28 20:22:00,59.0,-99.9,-100.00,NE,34,5.0,8.0,-999,-99.99,,,-99.99,,2013-11-29 03:22:00,
2013-11-28 20:43:00,58.0,-99.9,-100.00,North,7,11.0,14.0,-999,-99.99,,,-99.99,,2013-11-29 03:43:00,
2013-11-28 20:54:00,58.0,-99.9,-100.00,NNE,19,11.0,14.0,-999,-99.99,,,-99.99,,2013-11-29 03:54:00,
2013-11-28 21:03:00,58.0,-99.9,-100.00,NNE,19,11.0,14.0,-999,-99.99,,,-99.99,,2013-11-29 04:03:00,
2013-11-28 22:00:00,54.0,-99.9,-100.00,SSW,196,7.0,9.0,-999,-99.99,,,-99.99,,2013-11-29 05:00:00,
2013-11-28 22:43:00,54.0,-99.9,-100.00,SSW,196,7.0,9.0,-999,-99.99,,,-99.99,,2013-11-29 05:43:00,
2013-11-28 22:53:00,54.0,-99.9,-100.00,SSW,196,7.0,9.0,-999,-99.99,,,-99.99,,2013-11-29 05:53:00,
2013-11-28 23:42:00,52.0,-99.9,-100.00,SSE,152,4.0,5.0,-999,-99.99,,,-99.99,,2013-11-29 06:42:00,
2013-11-28 23:52:00,52.0,-99.9,-100.00,SE,142,3.0,10.0,-999,-99.99,,,-99.99,,2013-11-29 06:52:00,